THOR ABLESTAR DEB, 159

Orbit data source: Space-Track

THOR ABLESTAR DEB, 159 is space debris in LEO originally from a launch on Thu, 29 Jun 1961 UTC launched from the Air Force Eastern Test Range (AFETR). Debris objects in space refer to the collection of defunct objects orbiting the Earth. Examples of debris include non-operational satellites, rocket bodies, and fragments generated from explosions, collisions, or faulty payload assembly.

Loading next visibility...
Identifier
159, 1961-015AV
Orbit
LEO
Country
Flag of USUS
Related business
Manufacturer
Unknown
Mission
Spacecraft
Bus & Motor
Unknown
Mass
Unknown
Launch date (UTC)
1961-06-29 (64 years ago)
Launch vehicle
Unknown
Launch site
Air Force Eastern Test Range (AFETR)
Object type
Payload
Rocket body
Debris
Shape & HBR
Unknown shape, 0.2 m
Radar Cross Section
Medium (>0.1 m² and <1 m²)

Expand to show TLE details & history
Last TLE update: 1 day ago

TLE from 1 day ago
0 THOR ABLESTAR DEB
1   159U 61015AV  25354.20664828  .00000003  00000-0  16291-3 0  9998
2   159  65.5262 270.3109 0374171 228.0103 128.8490 13.02986533 57536
Epoch: 2025-12-20T04:57Z
TLE epoch observation values (Epoch: 2025-12-20T04:57:34.411Z)
Latitude
-0.00003°
Longitude
106.88074°
Altitude
1,437.618 km
Speed
7.056 km/s
True Right ascension
18h 01m 14s
True Declination
0° 00' 00"
Sunlit
Object was in daylight at epoch
Visualization orbit readout
Latitude
Unknown
Longitude
Unknown
Altitude
Unknown
Speed
Unknown
Apparent Right ascension
Unknown
Apparent Declination
Unknown
Sunlit
N/A
Visualization observer readout
Local Sidereal Time
11:59:24
Azimuth
Unknown
Elevation
Unknown
Doppler factor
Unknown
Orbital elements
Apogee altitude
1,534.398 km
Perigee altitude
963.627 km
Semi-major axis
7,627.15 km
Eccentricity
0.03742
Inclination
65.5262°
RAAN
270.3109°
Arg. of periapsis
228.0103°
True anomaly
132.09125°
Mean anomaly
128.849°
Eccentric anomaly
130.47968°
Mean motion
3.25837 °/min
Orbital period
110.48 mins
BSTAR
0.00016291
Loading maneuver chart data...
Computing Atmospheric mass density...

Documentation

Showing up to 5 results
|